GW4629 Weather Reports


Display with metric or nautical units.
time (UTC)temp
F
wind
direction
speed
MPH
gust
MPH
rain 1hr
in
rain 24hr
in
rain mn
in
humidity
%
barometer
mb
20260509072449 53 154 5.0 7.0 0.00 0.00 0.00 99 1017.6
20260509071945 53 131 6.0 7.0 0.00 0.00 0.00 99 1017.6
20260509071442 53 131 6.0 7.0 0.00 0.00 0.00 99 1017.6
20260509070940 53 140 8.0 9.0 0.00 0.00 0.00 99 1017.9
20260509070436 53 140 8.0 9.0 0.00 0.00 0.00 99 1017.9
20260509065931 53 135 9.0 11.0 0.00 0.00 0.00 99 1017.7
20260509065428 53 135 9.0 11.0 0.00 0.00 0.00 99 1017.7
20260509064924 51 101 6.0 8.0 0.00 0.00 0.00 99 1017.9
20260509064422 51 101 6.0 8.0 0.00 0.00 0.00 99 1017.9
20260509063920 52 140 5.0 6.0 0.00 0.00 0.00 99 1017.8
20260509063415 52 140 5.0 6.0 0.00 0.00 0.00 99 1017.8
20260509062913 53 138 4.0 6.0 0.00 0.00 0.00 99 1017.8
20260509062410 53 138 4.0 6.0 0.00 0.00 0.00 99 1017.8
20260509061907 52 150 1.0 1.0 0.00 0.00 0.00 99 1017.7
20260509061405 52 150 1.0 1.0 0.00 0.00 0.00 99 1017.7
20260509060901 53 112 3.0 3.0 0.00 0.00 0.00 99 1017.9
20260509060359 53 112 3.0 3.0 0.00 0.00 0.00 99 1017.9
20260509055855 53 94 3.0 3.0 0.00 0.04 0.04 99 1018.1
20260509055350 53 94 3.0 3.0 0.00 0.04 0.04 99 1018.1
20260509054847 53 107 5.0 6.0 0.00 0.04 0.04 99 1018.1
20260509054344 53 107 5.0 6.0 0.00 0.04 0.04 99 1018.1
20260509053842 51 143 5.0 6.0 0.00 0.04 0.04 99 1018.2
20260509053339 51 143 5.0 6.0 0.00 0.04 0.04 99 1018.2
20260509052838 51 104 5.0 6.0 0.00 0.04 0.04 99 1018.4
20260509052335 51 104 5.0 6.0 0.00 0.04 0.04 99 1018.4
20260509051832 52 138 7.0 8.0 0.00 0.04 0.04 99 1018.2
20260509051330 52 138 7.0 8.0 0.00 0.04 0.04 99 1018.2
20260509050826 50 100 5.0 6.0 0.00 0.04 0.04 99 1018.6
20260509050323 50 100 5.0 6.0 0.00 0.04 0.04 99 1018.6
20260509045820 49 93 1.0 2.0 0.00 0.04 0.04 99 1018.6
20260509045317 49 93 1.0 2.0 0.00 0.04 0.04 99 1018.6
20260509044814 50 111 6.0 7.0 0.00 0.04 0.04 99 1018.7
20260509044312 50 111 6.0 7.0 0.00 0.04 0.04 99 1018.7
20260509043808 50 86 2.0 2.0 0.00 0.04 0.04 99 1018.9
20260509043304 50 86 2.0 2.0 0.00 0.04 0.04 99 1018.9
20260509042800 50 153 3.0 4.0 0.00 0.04 0.04 99 1018.9
20260509042257 50 153 3.0 4.0 0.00 0.04 0.04 99 1018.9
20260509041753 51 132 3.0 3.0 0.00 0.04 0.04 99 1018.9
20260509041251 51 132 3.0 3.0 0.00 0.04 0.04 99 1018.9
20260509040749 51 132 2.0 2.0 0.00 0.04 0.04 99 1018.8
20260509040246 51 132 2.0 2.0 0.00 0.04 0.04 99 1018.8
20260509035743 51 129 2.0 3.0 0.00 0.04 0.04 99 1018.8
20260509035239 51 129 2.0 3.0 0.00 0.04 0.04 99 1018.8
20260509034736 52 94 2.0 2.0 0.00 0.04 0.04 99 1018.8
20260509034234 52 108 1.0 1.0 0.00 0.04 0.04 99 1018.6
20260509033731 52 108 1.0 1.0 0.00 0.04 0.04 99 1018.6
20260509033228 52 73 1.0 1.0 0.00 0.04 0.04 99 1018.7
20260509032725 52 73 1.0 1.0 0.00 0.04 0.04 99 1018.7
20260509032222 52 346 2.0 2.0 0.00 0.04 0.04 99 1018.4
20260509031720 52 346 2.0 2.0 0.00 0.04 0.04 99 1018.4
20260509031217 52 343 4.0 4.0 0.00 0.04 0.04 99 1018.8
20260509030715 52 343 4.0 4.0 0.00 0.04 0.04 99 1018.8
20260509030212 53 339 4.0 6.0 0.00 0.04 0.04 99 1018.6
20260509025708 53 339 4.0 6.0 0.00 0.04 0.04 99 1018.6
20260509025204 53 341 7.0 8.0 0.00 0.04 0.04 99 1018.6
20260509024659 53 341 7.0 8.0 0.00 0.04 0.04 99 1018.6
20260509024155 53 351 8.0 9.0 0.00 0.04 0.04 99 1018.6
20260509023654 53 351 8.0 9.0 0.00 0.04 0.04 99 1018.6
20260509023150 53 351 9.0 13.0 0.00 0.04 0.04 99 1018.6
20260509022646 53 351 9.0 13.0 0.00 0.04 0.04 99 1018.6
20260509022144 53 347 12.0 13.0 0.00 0.04 0.04 99 1018.6
20260509021640 53 347 12.0 13.0 0.00 0.04 0.04 99 1018.6
20260509021137 54 340 8.0 9.0 0.00 0.04 0.04 99 1018.4
20260509020636 54 340 8.0 9.0 0.00 0.04 0.04 99 1018.4
20260509020132 54 9 9.0 13.0 0.00 0.04 0.04 99 1018.3
20260509015631 54 9 9.0 13.0 0.00 0.04 0.04 99 1018.3
20260509015128 54 2 6.0 7.0 0.00 0.04 0.04 99 1018.4
20260509014625 54 2 6.0 7.0 0.00 0.04 0.04 99 1018.4
20260509014121 55 115 5.0 7.0 0.00 0.04 0.04 99 1018.4
20260509013619 55 115 5.0 7.0 0.00 0.04 0.04 99 1018.4
20260509013114 55 323 8.0 9.0 0.00 0.04 0.04 99 1018.2
20260509012611 55 323 8.0 9.0 0.00 0.04 0.04 99 1018.2
20260509012108 55 337 6.0 7.0 0.00 0.04 0.04 99 1018.3
20260509011606 55 337 6.0 7.0 0.00 0.04 0.04 99 1018.3
20260509011102 55 342 8.0 8.0 0.00 0.04 0.04 99 1018.4
20260509010600 55 342 8.0 8.0 0.00 0.04 0.04 99 1018.4
20260509010056 55 338 7.0 8.0 0.00 0.04 0.04 99 1018.3
20260509005554 55 338 7.0 8.0 0.00 0.04 0.04 99 1018.3
20260509005050 55 324 7.0 8.0 0.00 0.04 0.04 99 1018.6
20260509004547 55 324 7.0 8.0 0.00 0.04 0.04 99 1018.6
20260509004043 55 10 7.0 8.0 0.00 0.04 0.04 99 1018.6
20260509003542 55 10 7.0 8.0 0.00 0.04 0.04 99 1018.6
20260509003039 55 4 11.0 13.0 0.00 0.04 0.04 99 1018.3
20260509002536 55 4 11.0 13.0 0.00 0.04 0.04 99 1018.3
20260509002034 55 354 8.0 8.0 0.00 0.04 0.04 99 1018.4
20260509001531 55 354 8.0 8.0 0.00 0.04 0.04 99 1018.4
20260509001027 56 338 8.0 9.0 0.00 0.04 0.04 99 1018.7
20260509000525 56 338 8.0 9.0 0.00 0.04 0.04 99 1018.7
20260509000021 56 358 7.0 9.0 0.00 0.04 0.04 99 1018.4
20260508235519 56 358 7.0 9.0 0.00 0.04 0.04 99 1018.4
20260508235015 56 348 9.0 10.0 0.00 0.04 0.04 99 1018.3
20260508234513 56 348 9.0 10.0 0.00 0.04 0.04 99 1018.3
20260508234010 57 330 5.0 7.0 0.00 0.04 0.04 99 1018.4
20260508233509 57 330 5.0 7.0 0.00 0.04 0.04 99 1018.4
20260508233006 56 3 6.0 8.0 0.00 0.04 0.04 99 1018.4
20260508232503 56 3 6.0 8.0 0.00 0.04 0.04 99 1018.4
20260508232000 57 345 11.0 13.0 0.00 0.04 0.04 99 1018.4
20260508231457 57 345 11.0 13.0 0.00 0.04 0.04 99 1018.4
20260508230954 57 357 9.0 9.0 0.00 0.04 0.04 99 1018.6
20260508230451 57 357 9.0 9.0 0.00 0.04 0.04 99 1018.6
20260508225948 57 325 3.0 4.0 0.00 0.04 0.04 99 1018.7
20260508225445 57 325 3.0 4.0 0.00 0.04 0.04 99 1018.7
20260508224942 56 295 6.0 7.0 0.00 0.04 0.04 99 1018.7
20260508224439 56 295 6.0 7.0 0.00 0.04 0.04 99 1018.7
20260508223937 57 272 6.0 7.0 0.00 0.04 0.04 99 1018.6
20260508223434 57 272 6.0 7.0 0.00 0.04 0.04 99 1018.6
20260508222931 57 309 4.0 4.0 0.00 0.04 0.04 99 1018.6
20260508222429 57 309 4.0 4.0 0.00 0.04 0.04 99 1018.6
20260508221925 57 285 7.0 8.0 0.00 0.04 0.04 99 1018.6
20260508221421 57 285 7.0 8.0 0.00 0.04 0.04 99 1018.6
20260508220918 57 274 4.0 4.0 0.00 0.04 0.04 99 1018.4
20260508220414 57 274 4.0 4.0 0.00 0.04 0.04 99 1018.4
20260508215910 59 5 4.0 7.0 0.00 0.04 0.04 99 1018.4
20260508215408 59 5 4.0 7.0 0.00 0.04 0.04 99 1018.4
20260508214904 57 348 7.0 9.0 0.00 0.04 0.04 99 1018.4
20260508214402 57 348 7.0 9.0 0.00 0.04 0.04 99 1018.4
20260508213857 60 351 9.0 10.0 0.00 0.04 0.04 99 1018.4
20260508213355 60 351 9.0 10.0 0.00 0.04 0.04 99 1018.4
20260508212850 57 332 8.0 8.0 0.00 0.04 0.04 99 1018.8
20260508212347 57 332 8.0 8.0 0.00 0.04 0.04 99 1018.8
20260508211843 57 277 9.0 9.0 0.00 0.04 0.04 99 1018.9
20260508211339 57 277 9.0 9.0 0.00 0.04 0.04 99 1018.9
20260508210837 60 116 0.0 1.0 0.00 0.04 0.04 99 1019.1
20260508210333 60 116 0.0 1.0 0.00 0.04 0.04 99 1019.1
20260508205830 59 138 3.0 3.0 0.00 0.04 0.04 99 1018.8
20260508205326 59 138 3.0 3.0 0.00 0.04 0.04 99 1018.8
20260508204822 60 157 5.0 6.0 0.00 0.04 0.04 99 1018.7
20260508204319 60 157 5.0 6.0 0.00 0.04 0.04 99 1018.7
20260508203815 60 270 4.0 6.0 0.00 0.04 0.04 99 1018.8
20260508203312 60 270 4.0 6.0 0.00 0.04 0.04 99 1018.8
20260508202807 61 151 2.0 6.0 0.00 0.04 0.04 99 1018.9
20260508202307 61 151 2.0 6.0 0.00 0.04 0.04 99 1018.9
20260508201802 62 99 2.0 3.0 0.00 0.04 0.04 99 1019.1
20260508201259 62 99 2.0 3.0 0.00 0.04 0.04 99 1019.1
20260508200755 62 140 4.0 6.0 0.00 0.04 0.04 99 1019.1
20260508200252 62 140 4.0 6.0 0.00 0.04 0.04 99 1019.1
20260508195748 62 125 2.0 3.0 0.00 0.04 0.04 99 1019.2
20260508195245 62 125 2.0 3.0 0.00 0.04 0.04 99 1019.2
20260508194741 58 118 4.0 4.0 0.00 0.04 0.04 99 1019.4
20260508194238 58 118 4.0 4.0 0.00 0.04 0.04 99 1019.4
20260508193735 57 82 2.0 3.0 0.00 0.04 0.04 99 1019.4
20260508193232 57 82 2.0 3.0 0.00 0.04 0.04 99 1019.4
20260508192728 57 142 5.0 7.0 0.00 0.04 0.04 99 1019.3
20260508192225 57 142 5.0 7.0 0.00 0.04 0.04 99 1019.3
20260508191722 58 75 9.0 11.0 0.00 0.04 0.04 99 1019.4
20260508191220 58 75 9.0 11.0 0.00 0.04 0.04 99 1019.4
20260508190717 57 67 3.0 3.0 0.00 0.04 0.04 99 1019.7
20260508190213 57 67 3.0 3.0 0.00 0.04 0.04 99 1019.7
20260508185709 56 60 4.0 4.0 0.00 0.04 0.04 99 1019.8
20260508185208 56 60 4.0 4.0 0.00 0.04 0.04 99 1019.8
20260508184705 56 143 6.0 8.0 0.00 0.04 0.04 99 1019.8
20260508184202 56 143 6.0 8.0 0.00 0.04 0.04 99 1019.8
20260508183658 57 93 2.0 4.0 0.00 0.04 0.04 99 1019.7
20260508183154 57 93 2.0 4.0 0.00 0.04 0.04 99 1019.7
20260508182650 57 247 3.0 4.0 0.00 0.04 0.04 99 1019.7
20260508182147 57 247 3.0 4.0 0.00 0.04 0.04 99 1019.7
20260508181642 59 270 4.0 4.0 0.00 0.04 0.04 99 1019.8
20260508181140 59 26 3.0 3.0 0.00 0.04 0.04 99 1020.1
20260508180636 59 26 3.0 3.0 0.00 0.04 0.04 99 1020.1
20260508180133 57 145 6.0 10.0 0.00 0.04 0.04 99 1019.8
20260508175630 57 145 6.0 10.0 0.00 0.04 0.04 99 1019.8
20260508175127 56 189 2.0 3.0 0.00 0.04 0.04 99 1020.2
20260508174624 56 189 2.0 3.0 0.00 0.04 0.04 99 1020.2
20260508174121 55 182 6.0 8.0 0.00 0.04 0.04 99 1020.3
20260508173618 55 182 6.0 8.0 0.00 0.04 0.04 99 1020.3
20260508173114 57 155 4.0 4.0 0.00 0.04 0.04 99 1020.3
20260508172611 57 155 4.0 4.0 0.00 0.04 0.04 99 1020.3
20260508172108 57 159 7.0 11.0 0.00 0.04 0.04 99 1020.3
20260508171604 57 159 7.0 11.0 0.00 0.04 0.04 99 1020.3
20260508171101 58 213 0.0 0.0 0.00 0.04 0.04 99 1020.4
20260508170558 58 213 0.0 0.0 0.00 0.04 0.04 99 1020.4
20260508170055 57 163 2.0 3.0 0.00 0.04 0.04 99 1020.6
20260508165552 57 163 2.0 3.0 0.00 0.04 0.04 99 1020.6
20260508165049 53 282 3.0 4.0 0.00 0.04 0.04 99 1020.3
20260508164545 53 282 3.0 4.0 0.00 0.04 0.04 99 1020.3
20260508164042 55 8 4.0 6.0 0.00 0.04 0.04 99 1020.4
20260508163540 55 8 4.0 6.0 0.00 0.04 0.04 99 1020.4
20260508163037 56 356 3.0 4.0 0.00 0.04 0.04 99 1020.7
20260508162533 56 356 3.0 4.0 0.00 0.04 0.04 99 1020.7
20260508162031 55 304 1.0 2.0 0.00 0.04 0.04 99 1020.3
20260508161527 55 304 1.0 2.0 0.00 0.04 0.04 99 1020.3
20260508161024 51 159 3.0 4.0 0.00 0.04 0.04 99 1020.6
20260508160523 51 159 3.0 4.0 0.00 0.04 0.04 99 1020.6
20260508160020 54 153 2.0 3.0 0.00 0.04 0.04 99 1020.4
20260508155517 54 153 2.0 3.0 0.00 0.04 0.04 99 1020.4
20260508155014 53 248 2.0 3.0 0.00 0.04 0.04 99 1020.6
20260508154511 53 248 2.0 3.0 0.00 0.04 0.04 99 1020.6
20260508154008 52 10 2.0 2.0 0.00 0.04 0.04 99 1020.6
20260508153504 52 10 2.0 2.0 0.00 0.04 0.04 99 1020.6
20260508153001 50 190 3.0 6.0 0.00 0.04 0.04 99 1020.6
20260508152458 50 190 3.0 6.0 0.00 0.04 0.04 99 1020.6
20260508151954 50 87 3.0 4.0 0.00 0.04 0.04 99 1020.4
20260508151450 50 87 3.0 4.0 0.00 0.04 0.04 99 1020.4
20260508150947 48 95 4.0 6.0 0.00 0.04 0.04 99 1020.7
20260508150444 48 95 4.0 6.0 0.00 0.04 0.04 99 1020.7
20260508145939 48 109 6.0 8.0 0.00 0.04 0.04 99 1020.2
20260508145436 48 109 6.0 8.0 0.00 0.04 0.04 99 1020.2
20260508144933 46 93 9.0 10.0 0.00 0.04 0.04 99 1020.1
20260508144431 46 93 9.0 10.0 0.00 0.04 0.04 99 1020.1
20260508143928 45 76 11.0 13.0 0.00 0.04 0.04 99 1019.8
20260508143426 45 76 11.0 13.0 0.00 0.04 0.04 99 1019.8
20260508142922 43 114 9.0 11.0 0.00 0.04 0.04 99 1020.1
20260508142419 43 114 9.0 11.0 0.00 0.04 0.04 99 1020.1
20260508141915 43 113 6.0 8.0 0.00 0.04 0.04 99 1020.3
20260508141412 43 113 6.0 8.0 0.00 0.04 0.04 99 1020.3
20260508140910 43 130 6.0 7.0 0.00 0.04 0.04 99 1020.2
20260508140406 43 130 6.0 7.0 0.00 0.04 0.04 99 1020.2
20260508135902 42 111 4.0 4.0 0.00 0.04 0.04 99 1020.1
20260508135359 42 111 4.0 4.0 0.00 0.04 0.04 99 1020.1
20260508134855 41 113 4.0 6.0 0.00 0.04 0.04 99 1020.2
20260508134352 41 113 4.0 6.0 0.00 0.04 0.04 99 1020.2
20260508133848 41 116 5.0 6.0 0.00 0.04 0.04 99 1019.9
20260508133346 41 116 5.0 6.0 0.00 0.04 0.04 99 1019.9
20260508132843 42 169 7.0 8.0 0.00 0.04 0.04 99 1019.9
20260508132341 42 169 7.0 8.0 0.00 0.04 0.04 99 1019.9
20260508131837 40 231 7.0 9.0 0.00 0.04 0.04 99 1020.1
20260508131333 40 231 7.0 9.0 0.00 0.04 0.04 99 1020.1
20260508130830 39 74 6.0 8.0 0.00 0.04 0.04 99 1020.1
20260508130327 39 74 6.0 8.0 0.00 0.04 0.04 99 1020.1
20260508125823 38 103 7.0 8.0 0.00 0.04 0.04 99 1020.1
20260508125319 38 103 7.0 8.0 0.00 0.04 0.04 99 1020.1
20260508124817 38 150 8.0 9.0 0.00 0.04 0.04 99 1020.2
20260508124314 38 150 8.0 9.0 0.00 0.04 0.04 99 1020.2
20260508123812 38 119 5.0 7.0 0.00 0.04 0.04 99 1020.2
20260508123312 38 119 5.0 7.0 0.00 0.04 0.04 99 1020.2
20260508122806 38 113 6.0 7.0 0.00 0.04 0.04 99 1020.1
20260508122306 38 113 6.0 7.0 0.00 0.04 0.04 99 1020.1
20260508121801 37 83 8.0 10.0 0.00 0.04 0.04 99 1020.1
20260508121259 37 83 8.0 10.0 0.00 0.04 0.04 99 1020.1
20260508120756 37 81 8.0 9.0 0.00 0.04 0.04 99 1019.9
20260508120254 37 81 8.0 9.0 0.00 0.04 0.04 99 1019.9
20260508115751 37 110 4.0 6.0 0.00 0.04 0.04 99 1020.6
20260508115249 37 110 4.0 6.0 0.00 0.04 0.04 99 1020.6
20260508114745 37 99 8.0 10.0 0.00 0.04 0.04 99 1020.6
20260508114242 37 99 8.0 10.0 0.00 0.04 0.04 99 1020.6
20260508113738 37 155 6.0 7.0 0.12 0.04 0.04 99 1020.4
20260508113237 37 155 6.0 7.0 0.12 0.04 0.04 99 1020.4
20260508112732 37 184 7.0 14.0 0.05 0.02 0.02 99 1020.7
20260508112230 37 184 7.0 14.0 0.05 0.02 0.02 99 1020.7
20260508111726 38 122 12.0 17.0 0.07 0.01 0.01 99 1020.6
20260508111224 38 122 12.0 17.0 0.07 0.01 0.01 99 1020.6
20260508110715 39 88 6.0 9.0 0.00 0.00 0.00 99 1019.4
20260508110212 39 88 6.0 9.0 0.00 0.00 0.00 99 1019.4
20260508105712 39 173 5.0 6.0 0.00 0.00 0.00 99 1019.8
20260508105209 39 173 5.0 6.0 0.00 0.00 0.00 99 1019.8
20260508104707 39 142 8.0 9.0 0.00 0.00 0.00 99 1019.6
20260508104203 39 142 8.0 9.0 0.00 0.00 0.00 99 1019.6
20260508103701 38 155 2.0 4.0 0.00 0.00 0.00 99 1019.3
20260508103158 38 155 2.0 4.0 0.00 0.00 0.00 99 1019.3
20260508102655 38 209 2.0 2.0 0.00 0.00 0.00 99 1019.2
20260508102153 38 209 2.0 2.0 0.00 0.00 0.00 99 1019.2
20260508101650 38 206 1.0 2.0 0.00 0.00 0.00 99 1018.9
20260508101148 38 206 1.0 2.0 0.00 0.00 0.00 99 1018.9
20260508100644 39 284 2.0 3.0 0.00 0.00 0.00 99 1018.8
20260508100143 39 284 2.0 3.0 0.00 0.00 0.00 99 1018.8
20260508095639 40 123 0.0 1.0 0.00 0.00 0.00 99 1019.2
20260508095136 40 123 0.0 1.0 0.00 0.00 0.00 99 1019.2
20260508094632 39 126 1.0 1.0 0.00 0.00 0.00 99 1019.3
20260508094129 39 126 1.0 1.0 0.00 0.00 0.00 99 1019.3
20260508093627 40 92 1.0 2.0 0.00 0.00 0.00 99 1019.1
20260508093125 40 92 1.0 2.0 0.00 0.00 0.00 99 1019.1
20260508092621 40 138 1.0 2.0 0.00 0.00 0.00 99 1018.9
20260508092120 40 138 1.0 2.0 0.00 0.00 0.00 99 1018.9
20260508091617 40 267 5.0 7.0 0.00 0.00 0.00 99 1018.8
20260508091114 40 267 5.0 7.0 0.00 0.00 0.00 99 1018.8
20260508090612 40 232 9.0 13.0 0.00 0.00 0.00 99 1018.7
20260508090109 40 232 9.0 13.0 0.00 0.00 0.00 99 1018.7
20260508085605 41 235 11.0 16.0 0.00 0.00 0.00 99 1018.2
20260508085102 41 235 11.0 16.0 0.00 0.00 0.00 99 1018.2
20260508084559 42 246 1.0 1.0 0.00 0.00 0.00 99 1018.3
20260508084056 42 246 1.0 1.0 0.00 0.00 0.00 99 1018.3
20260508083552 43 78 4.0 6.0 0.00 0.00 0.00 99 1018.3
20260508083049 43 78 4.0 6.0 0.00 0.00 0.00 99 1018.3
20260508081731 42 149 4.0 4.0 0.00 0.00 0.00 99 1018.2
20260508081228 42 149 4.0 4.0 0.00 0.00 0.00 99 1018.2
20260508080725 42 69 5.0 6.0 0.00 0.00 0.00 99 1018.1
20260508080223 42 69 5.0 6.0 0.00 0.00 0.00 99 1018.1
20260508075719 43 25 5.0 6.0 0.00 0.00 0.00 99 1018.3
20260508075216 43 25 5.0 6.0 0.00 0.00 0.00 99 1018.3
20260508074714 42 82 6.0 8.0 0.00 0.00 0.00 99 1018.2
20260508074212 42 82 6.0 8.0 0.00 0.00 0.00 99 1018.2
20260508073708 42 81 1.0 1.0 0.00 0.00 0.00 99 1018.8
20260508073206 42 81 1.0 1.0 0.00 0.00 0.00 99 1018.8